[[{"header":{"parameterUnit":"m.s-1","parameterCategory":1,"la1":30.2992,"la2":30.254,"lo1":-89.0895,"lo2":-89.0443,"dy":0.0025,"dx":0.0025,"nx":19,"ny":19,"refTime":"2026-05-24T09:00:00:Z","depth":0,"parameterNumber":2,"parameterNumberName":"U-component_of_WINDS"},"data":[0,0,0,-3.6269,-3.6271,-3.6377,-3.6377,-3.6512,-3.6513,0,0,0,0,0,0,0,0,0,0,0,-3.6239,-3.624,-3.6269,-3.6272,-3.6377,-3.6377,-3.6512,-3.6513,0,0,0,0,0,0,0,0,0,0,0,-3.6239,-3.624,-3.6241,-3.6272,-3.6377,-3.6377,-3.6511,-3.6432,0,0,0,0,0,0,0,0,0,0,-3.6329,-3.6304,-3.624,-3.6241,-3.6273,-3.6377,-3.6377,-3.6428,-3.6437,-3.6465,0,-3.6491,0,-3.6504,-3.6522,-3.6523,0,0,0,-3.627,-3.6296,-3.6323,-3.6242,-3.6274,-3.6377,-3.6329,-3.6433,-3.6443,-3.6476,-3.6493,-3.6498,-3.6506,-3.6523,-3.6524,-3.669,-3.669,0,0,-3.6265,-3.6259,-3.6317,-3.633,-3.6315,-3.6326,-3.6332,-3.6439,-3.6456,-3.6493,-3.6501,-3.6509,-3.6524,-3.6525,-3.6689,-3.669,0,0,0,-3.6249,-3.6255,-3.6279,-3.6324,-3.6343,-3.6329,-3.6336,-3.6451,-3.646,-3.6502,-3.651,-3.6525,-3.6526,-3.6688,-3.6689,-3.6722,0,0,0,-3.6245,-3.6246,-3.6277,-3.6275,-3.6342,-3.6399,-3.6347,-3.6452,-3.6465,-3.651,-3.6525,-3.6528,-3.6687,-3.6689,-3.672,-3.6738,0,0,0,-3.6232,-3.6244,-3.626,-3.6274,-3.6319,-3.6397,-3.6412,-3.6455,-3.647,-3.6523,-3.6528,-3.6686,-3.6688,-3.6717,-3.6734,-3.6778,0,0,0,-3.6216,-3.629,-3.626,-3.6346,-3.6318,-3.6418,-3.6411,-3.6486,-3.6536,-3.6525,-3.6687,-3.6689,-3.6716,-3.6732,-3.6775,-3.6811,-3.6827,0,0,-3.6306,-3.6301,-3.6351,-3.6328,-3.6431,-3.6403,-3.6511,-3.6562,-3.6573,-3.665,-3.6654,-3.672,-3.6734,-3.6777,-3.692,-3.6932,0,0,0,-3.6377,-3.6413,-3.6442,-3.6489,-3.653,-3.6565,-3.6601,-3.6619,-3.6684,-3.6612,-3.675,-3.6758,-3.6783,-3.6801,-3.6811,-3.6832,-3.6698,-3.6698,-3.6697,-3.6495,-3.6503,-3.6586,-3.6607,-3.6653,-3.6688,-3.6725,-3.6755,-3.6753,-3.6785,-3.6806,-3.6892,-3.6913,-3.692,-3.6942,-3.6829,-3.6829,-3.6829,-3.683,-3.6624,-3.6674,-3.6667,-3.6744,-3.6753,-3.6817,-3.6853,-3.6848,-3.6908,-3.6877,-3.69,-3.6862,-3.6933,-3.6952,-3.6832,-3.6832,-3.6831,-3.6831,-3.6831,-3.6699,-3.6724,-3.6746,-3.6812,-3.6863,-3.6882,-3.6939,-3.6946,-3.6953,-3.6975,-3.6997,-3.6996,-3.6994,-3.6986,-3.6986,-3.6986,-3.6987,-3.6987,-3.6987,-3.6767,-3.679,-3.6838,-3.6886,-3.6915,-3.6955,-3.699,-3.7019,-3.7052,-3.7052,-3.7052,-3.7043,-3.694,-3.6912,-3.6992,-3.6991,-3.699,-3.699,-3.699,-3.689,-3.6863,-3.6936,-3.6965,-3.702,-3.7068,-3.7076,-3.7134,-3.7159,-3.7186,-3.7173,-3.7097,-3.7091,-3.7083,-3.7059,-3.7173,-3.7173,-3.7173,-3.7173,-3.6951,-3.6949,-3.7024,-3.7069,-3.7115,-3.7129,-3.7209,-3.7236,-3.726,-3.7275,-3.726,-3.7231,-3.7222,-3.7222,-3.7211,-3.7188,-3.7332,-3.7332,-3.7332,-3.7025,-3.7027,-3.7095,-3.7117,-3.716,-3.7196,-3.7271,-3.7322,-3.7344,-3.7339,-3.7286,-3.7279,-3.7232,-3.7217,-3.7208,-3.7191,-3.715,0,0]},{"header":{"parameterUnit":"m.s-1","parameterCategory":1,"la1":30.2992,"la2":30.254,"lo1":-89.0895,"lo2":-89.0443,"dy":0.0025,"dx":0.0025,"nx":19,"ny":19,"refTime":"2026-05-24T09:00:00:Z","depth":0,"parameterNumber":3,"parameterNumberName":"V-component_of_WINDS"},"data":[0,0,0,4.6133,4.6138,4.6385,4.6386,4.6692,4.6694,0,0,0,0,0,0,0,0,0,0,0,4.6057,4.6058,4.6132,4.6139,4.6385,4.6386,4.6691,4.6694,0,0,0,0,0,0,0,0,0,0,0,4.6056,4.6058,4.606,4.6139,4.6384,4.6386,4.6691,4.6508,0,0,0,0,0,0,0,0,0,0,4.627,4.6196,4.6057,4.6061,4.6141,4.6384,4.6386,4.6499,4.6519,4.6577,0,4.6629,0,4.6667,4.6715,4.6716,0,0,0,4.6141,4.618,4.6249,4.6061,4.6143,4.6384,4.6274,4.651,4.6533,4.6604,4.6634,4.6645,4.6672,4.6717,4.6718,4.7049,4.705,0,0,4.6127,4.6099,4.6233,4.6264,4.6227,4.6266,4.6282,4.6524,4.6554,4.6635,4.6653,4.6677,4.6719,4.6721,4.7048,4.7049,0,0,0,4.6087,4.6089,4.6153,4.6251,4.6296,4.6273,4.6291,4.6544,4.6567,4.6656,4.6681,4.672,4.6724,4.7046,4.7048,4.7092,0,0,0,4.6078,4.6065,4.6147,4.6132,4.6292,4.6424,4.6305,4.655,4.6578,4.6679,4.672,4.6727,4.7045,4.7047,4.7087,4.7117,0,0,0,4.6042,4.6061,4.6096,4.613,4.6235,4.642,4.6458,4.6557,4.6593,4.6716,4.6728,4.7044,4.7047,4.7083,4.711,4.7195,0,0,0,4.5993,4.6131,4.6096,4.6259,4.6233,4.6446,4.6456,4.6617,4.6727,4.6722,4.7045,4.7048,4.7082,4.7106,4.719,4.726,4.7287,0,0,4.6151,4.6149,4.6247,4.6223,4.6435,4.6411,4.6629,4.6757,4.6794,4.6961,4.697,4.7089,4.711,4.7194,4.7449,4.747,0,0,0,4.6288,4.6358,4.642,4.6524,4.6626,4.6714,4.6811,4.6858,4.7002,4.6875,4.7144,4.7157,4.7207,4.7242,4.726,4.7304,4.7063,4.7063,4.7062,4.6469,4.651,4.6675,4.6745,4.6845,4.6944,4.7029,4.7108,4.712,4.7182,4.7232,4.7382,4.7422,4.7435,4.7481,4.7273,4.7273,4.7274,4.7274,4.6703,4.6808,4.682,4.6984,4.7025,4.7162,4.7262,4.7265,4.7397,4.7348,4.7395,4.7336,4.7457,4.7499,4.7277,4.7277,4.7276,4.7276,4.7276,4.6826,4.6883,4.6939,4.7093,4.7206,4.7272,4.7399,4.7432,4.7464,4.751,4.7565,4.7564,4.7566,4.7534,4.7535,4.7535,4.7536,4.7536,4.7536,4.6931,4.6992,4.7096,4.7214,4.7284,4.7381,4.7481,4.7551,4.7636,4.765,4.7651,4.7654,4.7462,4.7412,4.7544,4.7543,4.7542,4.7541,4.7541,4.7151,4.7106,4.7266,4.7337,4.7477,4.7587,4.7628,4.7767,4.7829,4.789,4.7885,4.7738,4.7737,4.7723,4.7682,4.7877,4.7877,4.7877,4.7877,4.7254,4.7257,4.7427,4.7537,4.7649,4.7702,4.7879,4.7957,4.8031,4.8071,4.8048,4.7997,4.7981,4.799,4.797,4.7932,4.8186,4.8186,4.8187,4.739,4.7406,4.7551,4.7623,4.7735,4.783,4.7997,4.8122,4.8196,4.82,4.8103,4.809,4.8008,4.7979,4.798,4.7948,4.7879,0,0]}]]